Regional Weather Roundup
Issued by NWS

Home | Current Version | Previous Version | Graphics & Text | Print | Product List | Glossary Off
Versions: 1 2 3 4 5 6 7 8 9 10 11 12 13 14 15 16 17 18 19 20 21 22 23 24 25 26 27 28 29 30 31 32 33 34 35 36 37 38 39 40 41 42 43 44 45 46 47 48 49 50

000
ASUS43 KTOP 260508
RWRKS

WEATHER ROUNDUP FOR KANSAS
NATIONAL WEATHER SERVICE GOODLAND KS
1100 PM CST SUN JAN 25 2015

NOTE:  "FAIR" INDICATES FEW OR NO CLOUDS BELOW 12,000 FEET WITH NO
SIGNIFICANT WEATHER AND/OR OBSTRUCTIONS TO VISIBILITY.

KSZ001>006-013>018-027>032-041>047-260600-
NORTHWEST KANSAS

CITY           SKY/WX    TMP DP  RH WIND       PRES   REMARKS
GOODLAND       CLEAR     37  30  75 W13       30.12S WCI  29
HAYS           CLEAR     30  18  59 SW6       30.12R
HILL CITY      MOCLDY    30  20  66 W5        30.09F
RUSSELL        CLEAR     28  24  85 S9        30.09F
$$

KSZ061>065-074>080-084>089-260600-
SOUTHWEST KANSAS

CITY           SKY/WX    TMP DP  RH WIND       PRES   REMARKS
DODGE CITY     CLEAR     32  20  61 SW6       30.15R
ELKHART          N/A     40  28  62 W7          N/A
GARDEN CITY    CLEAR     36  21  54 SW7       30.14R
GREAT BEND     CLEAR     27  19  74 SW9       30.14R
LIBERAL        CLEAR     34  23  64 W6        30.18S
PRATT          CLEAR     30  25  80 SW5       30.15S
$$

KSZ066>073-081>083-090>101-260600-
SOUTHEAST KANSAS

CITY           SKY/WX    TMP DP  RH WIND       PRES   REMARKS
CHANUTE        CLOUDY    37  31  78 CALM      30.13R
COFFEYVILLE    CLEAR     34  29  82 NW6       30.14R
HUTCHINSON     CLEAR     25  22  88 CALM      30.14R
MEDICINE LODGE   N/A     32  24  72 NE3       30.16R
NEWTON         CLEAR     34  25  69 CALM      30.14R
PARSONS        MOCLDY    30  27  88 CALM      30.14R
WICHITA INTL   CLEAR     29  23  78 W6        30.14R
WICHITA JABRA  CLEAR     33  27  78 NW5       30.13R
WICHITA MCCONL CLEAR     36  28  74 W5        30.14R
WINFIELD       CLEAR     27  24  89 CALM      30.14S
$$

KSZ007>012-019>026-033>040-048>060-102>105-260600-
NORTHEAST KANSAS

CITY           SKY/WX    TMP DP  RH WIND       PRES   REMARKS
CONCORDIA      PTCLDY    30  28  92 S5        30.09S
EMPORIA        CLEAR     31  27  85 W5        30.11F
LAWRENCE       CLEAR     28  26  92 CALM      30.12F
MANHATTAN      CLEAR     26  23  88 CALM      30.12R
MARYSVILLE     CLEAR     27  27 100 CALM      30.09S
OLATHE IND     MOCLDY    31  28  89 N5        30.11F
OLATHE EXE     MOCLDY    32  28  85 CALM      30.10S
SALINA         CLEAR     27  23  85 SW6       30.12S
TOPEKA BILLARD CLEAR     30  25  81 CALM      30.12R
TOPEKA FORBES  CLEAR     27  23  85 W5        30.11R
$$



USA.gov is the U.S. government's official web portal to all federal, state and local government web resources and services.